User: anonymous   Login
Location: Unspecified
(0.0000°N, 0.0000°E)
Time: 23:58:40
(UTC+00:00)
Language:

STEP CUBE LAB - Orbit

View from above orbital plane
View from above orbital plane
View from above satellite
View from above satellite

Ground track
Ground track

The orbit data is extracted from the following two-line orbital elements,

1 43138U 18004AD  21207.75752007  .00003488  00000-0  13339-3 0  9992
2 43138  97.4098 283.2534 0009928  73.7623 286.4707 15.27214988196750
Epoch (UTC): 26 July 2021 18:10:49
Eccentricity: 0.0009928
inclination: 97.4098°
perigee height: 477 km
apogee height: 491 km
right ascension of ascending node: 283.2534°
argument of perigee: 73.7623°
revolutions per day: 15.27214988
mean anomaly at epoch: 286.4707°
orbit number at epoch: 19675

The dashed part of the orbit path shows where the satellite is in the earth's shadow,  

DLR